Theta_e
326 326 329 330 330 329 328 326 326 325 324 323 322 322 319 317 315 314 314 311 310 310 308 305 303 302 302 301 300 300 300 299 298 298 297 297 296 296 296 295 295 294 294
328 329 329 330 330 328 328 327 327 325 324 323 322 321 319 317 314 314 314 311 310 309 308 303 302 301 301 301 301 299 299 298 298 298 297 297 297 296 295 294 294 293 293
330 330 330 330 330 329 328 326 326 325 325 323 321 320 319 317 315 313 311 310 308 307 303 302 302 301 301 300 299 298 298 297 297 296 297 296 296 295 294 293 292 292 291
329 330 330 331 331 328 326 325 325 325 324 321 321 320 318 315 313 311 309 307 305 302 302 301 301 300 299 297 296 295 295 295 295 295 294 294 293 293 293 293 292 291 290
331 330 330 330 329 327 325 325 325 322 321 321 319 315 312 311 310 308 306 302 301 302 301 301 299 298 296 294 295 294 293 293 293 293 293 293 293 293 293 292 292 290 290
329 329 328 328 326 326 325 324 323 322 320 317 312 310 310 309 307 303 301 301 301 301 301 299 296 291 290 291 291 292 293 293 293 293 293 292 292 292 292 292 292 291 289
329 328 326 325 324 324 322 321 321 319 316 311 310 309 309 304 303 301 301 301 301 300 297 293 290 290 290 291 292 292 292 292 293 292 292 291 290 291 291 291 290 290 289
326 325 324 322 321 320 319 318 317 314 310 310 308 305 302 302 302 302 302 300 298 295 293 292 292 291 291 290 288 287 286 286 285 285 285 285 285 286 287 288 288 289 288
324 323 321 319 319 319 317 316 313 310 309 305 303 302 301 302 301 299 298 296 295 294 293 292 291 288 286 285 285 284 284 284 284 285 286 286 286 285 286 287 288 289 288
321 319 318 317 315 313 311 310 309 305 303 303 303 302 301 299 298 296 295 295 294 293 290 287 286 285 284 283 283 283 283 283 284 285 287 287 286 286 285 285 286 288 288
317 316 315 313 311 310 309 305 302 303 303 302 300 298 297 296 295 295 294 292 289 287 286 286 284 283 283 282 282 282 285 286 286 287 287 287 287 285 285 287 287 288 288
314 312 311 308 307 304 302 303 302 302 301 299 297 296 295 294 293 290 288 288 287 286 285 283 282 282 281 281 282 285 286 286 285 286 287 287 287 286 286 286 286 287 287
307 305 303 302 302 302 302 301 299 298 297 296 295 294 291 289 288 288 287 286 286 285 282 281 281 280 280 281 282 282 282 283 284 284 285 286 287 286 286 286 286 287 287
303 302 302 301 300 299 298 297 296 295 294 293 291 290 289 287 287 287 286 284 283 281 281 281 280 280 280 282 281 280 279 280 281 282 283 284 285 286 286 286 286 286 287
301 299 298 297 296 295 294 294 293 291 290 290 289 287 287 286 285 283 282 281 281 280 280 279 279 280 280 280 279 279 278 278 279 280 280 282 284 284 285 286 286 286 286
298 296 294 292 291 290 290 289 289 287 286 285 285 284 283 282 281 281 281 280 280 279 279 279 279 279 279 278 278 277 277 276 276 277 277 278 280 282 284 286 286 286 286
294 292 291 290 289 289 288 288 287 287 289 288 285 283 283 282 281 281 280 279 278 278 278 278 278 278 277 277 276 275 275 274 274 274 275 276 277 280 282 284 285 286 285
290 289 289 289 289 287 286 287 287 285 284 283 283 282 281 281 280 280 279 279 277 277 277 276 276 276 275 275 274 274 273 273 272 273 274 275 275 276 279 281 283 285 286
291 290 288 287 287 287 285 283 281 283 282 281 281 281 280 280 279 279 278 277 276 276 276 275 275 274 274 273 272 272 272 271 271 271 272 273 273 274 277 278 280 282 284
288 287 287 286 284 283 284 284 282 281 280 280 280 279 279 278 278 277 276 275 275 274 274 273 273 273 272 271 271 271 271 270 270 270 270 270 272 273 274 276 278 280 282
286 285 283 283 283 282 281 280 279 279 278 278 278 277 277 276 275 274 273 273 273 273 272 272 271 271 270 270 270 270 269 269 269 269 269 270 270 271 273 275 276 278 280
282 282 282 280 279 278 277 277 277 277 276 276 275 275 275 274 273 272 272 271 271 271 270 270 270 269 269 268 268 268 268 268 268 268 269 269 270 271 271 273 275 277 279
279 278 277 277 277 276 276 275 275 275 274 273 273 273 272 272 271 271 270 270 269 269 269 268 268 268 268 267 267 267 267 267 267 267 267 268 269 270 271 272 274 276 277
278 277 277 276 275 274 274 273 273 273 272 272 271 271 270 270 269 269 268 268 268 268 267 267 267 267 267 267 268 267 267 267 267 266 267 268 269 270 271 272 273 275 276
276 275 274 273 273 272 272 271 271 271 270 270 269 269 268 268 267 267 267 266 266 266 266 266 266 266 267 267 268 267 267 267 267 267 267 267 269 270 271 271 272 274 275
273 272 272 271 271 270 270 270 269 269 269 268 268 268 267 266 266 266 265 265 265 265 265 265 266 266 267 268 268 268 267 268 268 269 268 268 269 270 271 271 272 273 275
Wind_Speed
39 42 39 39 40 39 40 36 34 31 25 24 27 29 32 39 29 31 30 29 21 26 25 19 17 17 19 19 20 22 24 26 33 37 36 34 34 33 30 29 31 32 30
41 44 42 39 38 38 35 36 35 29 24 22 21 26 32 34 30 32 29 21 26 21 21 16 19 20 20 20 20 22 24 25 30 37 36 34 32 31 29 29 27 22 29
42 39 37 42 41 38 30 31 32 30 25 25 22 29 29 34 31 26 21 19 18 18 15 16 18 20 21 23 25 26 27 28 30 34 37 36 37 32 31 32 36 38 40
38 35 35 40 41 30 30 36 34 28 27 22 23 30 31 28 23 22 17 17 15 11 14 18 21 23 24 25 26 25 26 29 31 35 39 42 42 41 40 39 41 38 35
38 32 34 37 34 29 33 30 27 26 28 28 25 26 23 23 23 17 16 15 15 19 23 24 24 25 26 26 25 27 28 30 31 34 36 37 40 40 40 41 38 35 35
28 28 30 31 32 25 25 27 30 30 27 28 24 19 21 20 16 15 16 16 21 24 24 24 25 25 25 25 25 26 28 31 33 33 35 34 38 37 37 38 36 32 31
29 27 27 23 22 23 24 28 28 28 27 26 18 18 19 17 14 14 16 20 22 24 24 23 24 25 26 27 29 31 33 34 35 38 42 42 40 38 37 33 34 33 29
18 15 15 16 17 19 25 26 27 27 26 18 16 15 13 12 15 20 23 22 22 22 22 24 24 26 28 31 34 35 35 36 36 35 34 36 36 38 42 39 36 33 28
14 15 15 15 20 24 26 27 27 25 19 17 14 15 18 21 21 21 21 22 22 22 24 26 27 27 25 27 31 33 34 34 30 29 31 32 31 30 28 28 29 34 32
15 13 15 17 21 23 25 24 22 19 17 17 19 21 20 20 20 21 22 22 23 25 26 24 23 23 25 25 26 29 33 34 32 32 32 30 29 30 31 29 30 34 26
14 14 16 20 25 25 23 20 20 19 19 19 18 19 20 20 20 20 22 24 24 22 22 21 22 23 23 23 22 24 24 27 29 30 32 32 30 28 26 23 23 29 29
17 19 21 21 20 19 19 18 19 20 20 20 19 18 18 19 20 22 22 23 22 21 22 23 24 23 22 22 20 20 21 24 27 28 28 30 29 30 25 23 24 22 25
15 19 23 22 19 18 19 21 20 19 19 19 19 18 17 19 20 20 20 20 21 22 23 24 23 22 21 21 21 24 26 27 26 24 22 30 32 28 20 21 20 23 21
24 23 23 23 22 20 20 19 19 17 16 16 15 15 16 18 20 21 21 22 22 23 23 23 22 20 19 20 25 26 23 21 21 23 24 20 20 25 22 20 19 20 19
24 22 21 19 18 16 15 13 12 12 12 13 14 15 16 18 20 22 22 23 23 22 23 22 20 18 21 25 26 26 24 22 23 23 23 25 25 21 24 24 21 18 18
22 19 16 15 12 7 7 8 9 10 9 11 12 15 16 16 17 18 19 19 19 19 19 18 16 19 22 24 26 27 26 25 23 23 23 23 22 24 24 21 20 20 21
17 13 10 8 6 4 5 7 8 10 16 18 14 12 13 15 16 17 18 19 15 14 15 15 17 21 23 24 26 27 28 25 23 22 24 22 21 22 21 18 19 22 24
12 10 7 4 4 7 8 9 11 11 11 13 16 15 15 17 17 17 18 22 23 17 17 18 20 21 23 25 25 25 25 23 24 24 24 21 19 22 22 19 12 17 27
6 8 8 7 9 8 6 9 10 13 14 15 15 15 16 17 17 19 22 25 20 17 19 20 20 22 24 24 24 23 23 24 24 25 23 21 21 22 22 20 18 11 10
4 5 5 4 5 7 11 13 11 12 14 14 15 14 15 19 22 25 24 16 14 17 19 20 20 23 24 23 24 25 25 25 25 24 23 20 23 23 22 21 18 15 13
0 2 4 7 11 11 12 12 13 14 14 14 15 17 19 20 21 22 18 17 19 20 22 24 25 24 23 26 27 25 24 24 22 22 20 24 25 25 22 19 19 17 13
4 7 9 9 10 11 12 13 13 13 14 15 16 16 18 21 20 19 19 19 19 21 22 24 24 25 27 24 25 24 25 20 21 22 25 25 24 23 21 20 18 15 12
6 6 7 9 11 13 14 13 12 13 16 16 16 17 19 20 19 19 20 21 21 21 21 23 27 27 25 21 23 20 18 21 24 21 22 25 26 25 23 21 18 16 13
9 10 11 11 12 13 14 14 15 15 14 17 19 20 20 21 21 22 22 22 23 24 25 26 27 27 24 25 20 20 21 19 17 21 25 24 24 23 21 19 17 15 13
11 12 12 13 14 14 15 16 16 17 18 19 20 21 22 23 23 21 23 24 25 25 26 26 24 26 25 20 20 18 17 17 19 20 21 24 25 23 21 19 16 15 13
13 13 14 14 14 16 17 17 18 19 18 17 19 22 22 22 23 26 26 26 26 24 24 25 25 23 20 18 17 17 18 18 20 20 21 24 26 23 21 18 16 15 13
Wind_Direction
222 223 230 237 232 232 231 232 237 240 231 225 223 224 227 228 222 234 233 225 237 253 263 250 266 264 272 271 276 276 276 277 279 285 286 289 290 292 291 289 288 285 283
224 222 229 234 236 236 232 237 238 242 235 237 235 231 232 222 235 228 234 238 256 260 260 245 252 268 268 273 271 273 278 282 283 284 288 290 290 290 289 287 286 277 285
218 224 236 236 237 242 232 247 236 234 236 233 244 235 231 225 227 223 234 243 251 250 243 249 259 259 263 266 271 275 276 278 278 282 285 287 288 290 291 286 288 288 287
222 225 233 232 233 238 241 238 231 225 231 236 234 240 227 222 225 224 233 245 237 236 249 245 256 264 268 275 280 282 284 284 285 285 287 288 289 291 290 291 295 293 294
216 226 231 234 242 240 244 235 226 228 223 224 222 206 213 212 219 227 231 220 230 233 244 254 258 263 270 274 275 281 285 286 287 287 290 292 291 292 289 292 287 291 290
231 236 237 227 231 233 227 229 218 215 212 203 193 200 203 212 217 217 221 234 238 251 259 258 266 272 274 275 274 271 277 284 286 287 289 291 291 294 292 289 282 279 289
229 226 219 221 216 217 234 216 208 199 196 192 199 197 199 209 210 224 234 240 250 259 264 268 271 274 277 278 277 277 277 276 277 283 288 290 292 292 293 288 287 280 281
209 208 206 216 228 225 209 200 197 193 187 196 192 190 191 202 219 236 246 252 257 263 270 277 281 281 282 284 285 285 285 286 287 291 291 292 291 287 281 289 286 277 270
212 230 242 223 208 207 201 196 186 184 189 183 183 195 207 221 232 240 246 257 265 272 277 280 283 285 286 286 288 291 293 293 298 299 301 297 292 292 283 286 283 262 251
234 225 212 206 200 189 181 180 183 178 177 189 202 213 223 230 234 244 253 260 270 277 282 288 291 291 294 295 296 297 298 303 305 303 303 303 300 290 287 276 275 268 264
208 210 200 187 183 181 176 174 174 183 195 206 213 220 226 234 244 252 262 270 277 284 291 293 295 299 300 299 300 302 304 305 304 304 304 304 306 301 293 286 280 264 256
183 179 175 175 176 172 175 183 191 194 199 203 211 221 239 250 256 261 267 275 287 296 301 303 304 304 303 301 299 296 294 298 302 302 307 305 305 305 294 292 288 273 269
169 164 163 164 172 181 190 192 199 205 212 218 228 237 244 251 262 272 278 285 292 297 299 301 304 304 301 295 298 306 302 298 297 308 310 303 300 301 293 288 282 276 264
163 163 171 174 175 181 191 202 208 214 223 229 236 243 249 263 271 278 282 285 287 292 295 298 304 306 302 299 303 310 310 307 312 303 300 323 307 300 288 283 281 277 268
172 172 173 176 181 181 184 191 214 226 237 248 251 255 260 264 269 275 280 285 294 301 302 306 309 306 303 306 310 314 317 315 313 312 317 307 307 332 302 273 268 265 258
168 165 167 171 170 176 206 223 238 235 244 257 263 268 264 267 273 281 290 295 297 300 303 308 310 303 302 307 311 315 316 318 316 321 315 321 322 314 319 288 265 253 259
160 162 169 169 176 207 253 281 281 274 284 282 289 302 300 298 297 304 314 324 321 306 301 300 295 296 302 306 309 313 315 315 317 317 321 320 323 312 307 322 286 264 260
155 148 146 173 221 226 224 263 284 278 283 293 292 294 297 291 297 304 310 318 318 305 301 304 297 299 304 307 309 312 314 316 317 316 319 321 321 318 321 315 301 294 271
209 202 200 209 232 253 281 274 266 273 280 278 280 285 283 290 288 297 304 309 299 293 299 300 299 300 303 304 305 305 306 309 313 315 318 319 317 314 316 316 309 324 283
199 215 231 259 286 276 273 289 301 286 274 277 281 280 278 282 291 298 309 306 289 295 297 298 298 301 301 300 304 304 303 306 308 313 318 315 313 316 316 317 313 315 320
334 314 314 295 294 302 300 294 287 284 283 280 280 281 285 293 301 309 313 306 303 300 298 299 303 304 300 299 299 300 303 305 307 311 307 308 312 315 317 314 314 310 325
334 308 308 303 292 287 292 296 293 290 294 295 291 288 293 297 298 301 301 300 301 300 301 300 301 302 304 300 297 301 305 309 310 309 311 313 313 313 316 314 312 308 305
331 317 306 305 308 310 311 310 303 304 304 302 298 302 304 303 302 301 301 301 300 299 298 299 299 301 303 299 300 298 299 298 307 314 317 314 313 312 313 312 308 311 303
333 326 322 321 320 317 317 314 311 310 304 302 304 305 305 306 306 304 301 300 299 298 297 296 297 300 299 300 292 296 299 300 306 307 308 309 311 313 312 309 305 302 304
332 331 329 327 326 324 320 315 312 312 312 310 309 311 311 310 309 306 303 302 301 298 298 299 301 304 304 298 297 297 291 289 298 303 303 304 305 306 304 302 300 296 296
337 335 333 330 324 320 318 316 316 318 320 315 315 314 313 313 311 311 310 306 305 304 304 305 305 305 300 298 299 301 299 293 295 302 308 310 307 303 299 295 293 290 289